TITAN 3C TRANSTAGE DEB, 1883

Orbit data source: Space-Track

TITAN 3C TRANSTAGE DEB, 1883 is space debris in LEO originally from a launch on Fri, 15 Oct 1965 UTC launched from the Air Force Eastern Test Range (AFETR). Debris objects in space refer to the collection of defunct objects orbiting the Earth. Examples of debris include non-operational satellites, rocket bodies, and fragments generated from explosions, collisions, or faulty payload assembly.

Loading next visibility...
Identifier
1883, 1965-082EY
Orbit
LEO
Country
Flag of USUS
Related business
Manufacturer
Unknown
Mission
Spacecraft
Bus & Motor
Unknown
Mass
Unknown
Launch date (UTC)
1965-10-15 (60 years ago)
Launch vehicle
Unknown
Launch site
Air Force Eastern Test Range (AFETR)
Object type
Payload
Rocket body
Debris
Shape & HBR
Unknown shape, 0.1 m
Radar Cross Section
Small (<0.1 m²)

Expand to show TLE details & history
Last TLE update: 17 hours ago

TLE from 17 hours ago
0 TITAN 3C TRANSTAGE DEB
1 01883U 65082EY  25303.54088367  .00009332  00000-0  41676-3 0  9999
2 01883  32.0918  87.6905 0014358 323.7245  36.2442 15.20092568230281
Epoch: 2025-10-30T12:58Z
TLE epoch observation values (Epoch: 2025-10-30T12:58:52.349Z)
Latitude
-0.00001°
Longitude
-146.12583°
Altitude
496.208 km
Speed
7.623 km/s
True Right ascension
05h 50m 45s
True Declination
0° 00' 00"
Sunlit
Object was in full shadow at epoch
Visualization orbit readout
Latitude
Unknown
Longitude
Unknown
Altitude
Unknown
Speed
Unknown
Apparent Right ascension
Unknown
Apparent Declination
Unknown
Sunlit
N/A
Visualization observer readout
Local Sidereal Time
01:44:16
Azimuth
Unknown
Elevation
Unknown
Doppler factor
Unknown
Orbital elements
Apogee altitude
519.145 km
Perigee altitude
499.367 km
Semi-major axis
6,887.393 km
Eccentricity
0.00144
Inclination
32.0918°
RAAN
87.6905°
Arg. of periapsis
323.7245°
True anomaly
36.34162°
Mean anomaly
36.2442°
Eccentric anomaly
36.29289°
Mean motion
3.79718 °/min
Orbital period
94.81 mins
BSTAR
0.00041676

Documentation

Showing up to 5 results
|